IRIDIUM 33 DEB, 35622

Orbit data source: Space-Track

IRIDIUM 33 DEB, 35622 is space debris in LEO originally from a launch on Sun, 14 Sep 1997 UTC launched from the Tyuratam Missile And Space Complex (TTMTR). The debris from Iridium 33, an American commercial communications satellite, has been tracked extensively since its accidental collision with the defunct Russian satellite Cosmos 2251 in 2009. This event, occurring at high speed in low Earth orbit (LEO), generated thousands of pieces of space debris, significantly increasing the risk of further collisions. The Iridium 33 debris cloud has impacted space traffic management and orbital debris mitigation strategies, making it a subject of ongoing study in space situational awareness.

Loading next visibility...
Identifier
35622, 1997-051QU
Orbit
LEO
Country
Flag of USUS
Related business
Manufacturer
Unknown
Mission
Spacecraft
Bus & Motor
Unknown
Mass
Unknown
Launch date (UTC)
1997-09-14 (29 years ago)
Launch vehicle
Unknown
Launch site
Tyuratam Missile And Space Complex (TTMTR)
Object type
Payload
Rocket body
Debris
Shape & HBR
Unknown shape, 0.1 m
Radar Cross Section
Small (<0.1 m²)

Expand to show TLE details & history
Last TLE update: 1 day ago

TLE from 1 day ago
0 IRIDIUM 33 DEB
1 35622U 97051QU  26104.55675456  .00022016  00000-0  10896-2 0  9993
2 35622  86.1924 202.3560 0009366 174.1495 199.7554 15.17649081892150
Epoch: 2026-04-14T13:21Z
TLE epoch observation values (Epoch: 2026-04-14T13:21:43.593Z)
Latitude
13.80239°
Longitude
160.12473°
Altitude
521.444 km
Speed
7.6 km/s
True Right ascension
13h 33m 09s
True Declination
13° 43' 13"
Sunlit
Object was in full shadow at epoch
Visualization orbit readout
Latitude
Unknown
Longitude
Unknown
Altitude
Unknown
Speed
Unknown
Apparent Right ascension
Unknown
Apparent Declination
Unknown
Sunlit
N/A
Visualization observer readout
Local Sidereal Time
19:31:10
Azimuth
Unknown
Elevation
Unknown
Doppler factor
Unknown
Orbital elements
Apogee altitude
516.251 km
Perigee altitude
503.349 km
Semi-major axis
6,887.937 km
Eccentricity
0.00094
Inclination
86.1924°
RAAN
202.356°
Arg. of periapsis
174.1495°
True anomaly
199.71916°
Mean anomaly
199.7554°
Eccentric anomaly
199.73728°
Mean motion
3.79673 °/min
Orbital period
94.82 mins
BSTAR
0.0010896
Loading maneuver chart data...
Computing Atmospheric mass density...

Documentation

Showing up to 5 results
|